[[{"header":{"parameterUnit":"m.s-1","parameterCategory":1,"la1":30.2992,"la2":30.254,"lo1":-89.0895,"lo2":-89.0443,"dy":0.0025,"dx":0.0025,"nx":19,"ny":19,"refTime":"2026-05-14T09:00:00:Z","depth":0,"parameterNumber":2,"parameterNumberName":"U-component_of_WINDS"},"data":[0,0,0,0.1663,0.1665,0.1756,0.1757,0.1871,0.1872,0,0,0,0,0,0,0,0,0,0,0,0.1631,0.1632,0.1663,0.1665,0.1756,0.1757,0.187,0.1872,0,0,0,0,0,0,0,0,0,0,0,0.1631,0.1632,0.1632,0.1665,0.1756,0.1757,0.187,0.1803,0,0,0,0,0,0,0,0,0,0,0.1715,0.168,0.1631,0.1632,0.1666,0.1756,0.1757,0.18,0.1807,0.1827,0,0.1841,0,0.1858,0.1879,0.1879,0,0,0,0.1669,0.1674,0.1703,0.1632,0.1667,0.1756,0.1716,0.1804,0.1812,0.1837,0.1842,0.1847,0.186,0.1879,0.188,0.1974,0.1975,0,0,0.1664,0.1646,0.1697,0.1708,0.169,0.1713,0.1719,0.1809,0.1815,0.1843,0.185,0.1861,0.188,0.1881,0.1974,0.1974,0,0,0,0.1647,0.1642,0.1669,0.1703,0.1719,0.1716,0.1723,0.1811,0.1821,0.1851,0.1863,0.1881,0.1882,0.1974,0.1974,0.1967,0,0,0,0.1644,0.1632,0.1666,0.1656,0.1718,0.1766,0.1722,0.1815,0.1826,0.1862,0.1881,0.1883,0.1974,0.1974,0.1967,0.1967,0,0,0,0.1627,0.163,0.1641,0.1654,0.1693,0.1765,0.178,0.1818,0.1833,0.1879,0.1883,0.1973,0.1974,0.1967,0.1967,0.1987,0,0,0,0.1604,0.1634,0.1641,0.168,0.1692,0.1759,0.178,0.1831,0.187,0.1881,0.1974,0.1974,0.1966,0.1967,0.1987,0.2001,0.2005,0,0,0.1632,0.1637,0.1661,0.167,0.1731,0.1747,0.1808,0.1862,0.1885,0.1944,0.1947,0.1967,0.1967,0.1987,0.2033,0.2036,0,0,0,0.1664,0.1681,0.1702,0.1737,0.1778,0.1814,0.186,0.1881,0.1932,0.191,0.198,0.1981,0.1994,0.2001,0.2004,0.2017,0.1977,0.1977,0.1977,0.1677,0.1703,0.1746,0.1784,0.1818,0.1866,0.1897,0.1934,0.1951,0.1967,0.1985,0.2009,0.2017,0.2019,0.2032,0.1994,0.1994,0.1994,0.1994,0.1721,0.175,0.1772,0.1821,0.185,0.1894,0.1943,0.1954,0.2,0.1997,0.201,0.2006,0.2021,0.2034,0.1994,0.1994,0.1994,0.1994,0.1994,0.1732,0.1751,0.1774,0.1829,0.1869,0.1907,0.195,0.1975,0.2,0.2012,0.2034,0.2035,0.2039,0.2021,0.2021,0.2021,0.2021,0.2021,0.2021,0.1734,0.1761,0.1793,0.184,0.1867,0.1906,0.1956,0.1984,0.2022,0.2037,0.2038,0.2054,0.2017,0.2008,0.2023,0.2022,0.2022,0.2022,0.2022,0.1769,0.1765,0.1814,0.1841,0.19,0.1939,0.1971,0.2026,0.2053,0.2074,0.2089,0.2057,0.2065,0.2063,0.2056,0.2082,0.2082,0.2082,0.2082,0.1779,0.1785,0.1841,0.1883,0.1927,0.1961,0.2019,0.206,0.2102,0.2121,0.2121,0.2113,0.211,0.212,0.2117,0.211,0.2149,0.215,0.215,0.1802,0.1814,0.1857,0.1895,0.1944,0.1986,0.2042,0.2091,0.2138,0.2153,0.2137,0.2134,0.2121,0.2116,0.2129,0.2124,0.2112,0,0]},{"header":{"parameterUnit":"m.s-1","parameterCategory":1,"la1":30.2992,"la2":30.254,"lo1":-89.0895,"lo2":-89.0443,"dy":0.0025,"dx":0.0025,"nx":19,"ny":19,"refTime":"2026-05-14T09:00:00:Z","depth":0,"parameterNumber":3,"parameterNumberName":"V-component_of_WINDS"},"data":[0,0,0,-1.1398,-1.1397,-1.1355,-1.1355,-1.1277,-1.1276,0,0,0,0,0,0,0,0,0,0,0,-1.1395,-1.1394,-1.1398,-1.1397,-1.1355,-1.1355,-1.1277,-1.1276,0,0,0,0,0,0,0,0,0,0,0,-1.1396,-1.1395,-1.1393,-1.1396,-1.1355,-1.1355,-1.1277,-1.1317,0,0,0,0,0,0,0,0,0,0,-1.1362,-1.1345,-1.1395,-1.1393,-1.1396,-1.1355,-1.1355,-1.132,-1.1315,-1.1285,0,-1.1255,0,-1.1264,-1.1269,-1.1269,0,0,0,-1.1407,-1.1349,-1.1352,-1.1393,-1.1395,-1.1355,-1.1377,-1.1317,-1.1312,-1.1278,-1.1254,-1.1252,-1.1263,-1.1268,-1.1268,-1.106,-1.1058,0,0,-1.141,-1.138,-1.1355,-1.1347,-1.1353,-1.1378,-1.1375,-1.1314,-1.1285,-1.1254,-1.125,-1.1261,-1.1268,-1.1267,-1.1061,-1.1059,0,0,0,-1.1409,-1.1381,-1.1385,-1.135,-1.1344,-1.1377,-1.1374,-1.1288,-1.1292,-1.125,-1.126,-1.1267,-1.1266,-1.1063,-1.106,-1.0956,0,0,0,-1.1411,-1.1381,-1.1386,-1.1367,-1.1345,-1.1316,-1.1348,-1.1296,-1.1291,-1.1261,-1.1267,-1.1265,-1.1064,-1.1061,-1.0962,-1.091,0,0,0,-1.1403,-1.138,-1.1369,-1.1365,-1.1347,-1.1317,-1.1318,-1.1296,-1.1296,-1.1268,-1.1264,-1.1066,-1.1062,-1.0968,-1.092,-1.0844,0,0,0,-1.1386,-1.1278,-1.1367,-1.125,-1.1347,-1.1254,-1.1319,-1.1252,-1.1216,-1.1266,-1.1064,-1.1061,-1.097,-1.0925,-1.085,-1.0772,-1.0738,0,0,-1.1232,-1.1258,-1.1192,-1.127,-1.1154,-1.1263,-1.1131,-1.1127,-1.1152,-1.1089,-1.1084,-1.096,-1.092,-1.0845,-1.0563,-1.0536,0,0,0,-1.1133,-1.1084,-1.106,-1.1024,-1.1018,-1.1008,-1.1028,-1.1026,-1.0974,-1.1114,-1.0915,-1.0893,-1.085,-1.0813,-1.079,-1.0753,-1.1044,-1.1044,-1.1045,-1.0869,-1.0907,-1.0799,-1.0832,-1.0797,-1.0818,-1.0792,-1.0793,-1.0843,-1.0795,-1.0775,-1.0599,-1.0556,-1.0539,-1.05,-1.0741,-1.074,-1.074,-1.074,-1.0644,-1.0579,-1.0649,-1.0568,-1.0609,-1.0541,-1.0558,-1.0595,-1.0537,-1.0618,-1.0582,-1.0663,-1.0508,-1.0476,-1.0732,-1.0734,-1.0735,-1.0735,-1.0736,-1.0471,-1.0447,-1.0448,-1.04,-1.0358,-1.0397,-1.0338,-1.0379,-1.0417,-1.0382,-1.0363,-1.0364,-1.0368,-1.0371,-1.037,-1.0369,-1.0369,-1.0368,-1.0368,-1.029,-1.0295,-1.024,-1.0225,-1.0207,-1.0189,-1.021,-1.0193,-1.0185,-1.0219,-1.0219,-1.027,-1.0487,-1.0538,-1.0359,-1.036,-1.0362,-1.0362,-1.0363,-1.0039,-1.0103,-1.0018,-1.0,-0.9986,-0.994,-0.9995,-0.9957,-0.995,-0.9918,-0.998,-1.0135,-1.0163,-1.0182,-1.0224,-0.9974,-0.9974,-0.9974,-0.9974,-0.989,-0.991,-0.9832,-0.98,-0.9774,-0.9814,-0.9715,-0.9731,-0.9757,-0.9754,-0.9798,-0.9859,-0.9877,-0.9895,-0.992,-0.9959,-0.9648,-0.9647,-0.9647,-0.9736,-0.9756,-0.9663,-0.969,-0.9683,-0.9674,-0.9582,-0.9541,-0.9585,-0.9635,-0.9752,-0.9766,-0.9865,-0.9896,-0.9943,-0.9981,-1.0055,0,0]}]]